Regional Weather Roundup
Issued by NWS Albany, NY

Home | Current Version | Previous Version | Text Only | Print | Product List | Glossary On
Versions: 1 2 3 4 5 6 7 8 9 10 11 12 13 14 15 16 17 18 19 20 21 22 23 24 25 26 27 28
000
ASUS41 KALY 241410
RWRALY

NEW YORK STATE HOURLY WEATHER ROUNDUP
NATIONAL WEATHER SERVICE ALBANY NY
1000 AM EDT WED AUG 24 2016

NOTE: "FAIR" INDICATES FEW OR NO CLOUDS BELOW 12,000 FEET WITH NO
SIGNIFICANT WEATHER AND/OR NO OBSTRUCTIONS TO VISIBILITY.

NYZ032-033-038>043-046>054-057>066-NYZ062>081-082-084-241500-
EAST


CITY           SKY/WX    TMP DP  RH WIND       PRES   REMARKS
ALBANY         MOSUNNY   70  60  70 VRB6      30.28F
GLENS FALLS    SUNNY     70  60  70 S7        30.26F
POUGHKEEPSIE   SUNNY     74  60  61 CALM      30.28S
NEWBURGH       SUNNY     72  63  73 W6        30.31S
MONTGOMERY     SUNNY     73  63  70 S5        30.29F
WHITE PLAINS   SUNNY     77  61  57 NW7       30.28F
ISLIP          MOSUNNY   80  59  48 NW8       30.28S
NEW YORK CITY  MOSUNNY   80  60  50 VRB5      30.27F
CENTRAL PARK   SUNNY     75  60  59 VRB3      30.31F
$$

NYZ005>009-017-018-044>046-055-056-241500-
CENTRAL


CITY           SKY/WX    TMP DP  RH WIND       PRES   REMARKS
FULTON         SUNNY     73  60  63 S6        30.23F
SYRACUSE       PTSUNNY   72  60  66 CALM      30.24F
ROME           MOSUNNY   70  60  70 SE5       30.27F
ELMIRA         MOSUNNY   64  59  83 CALM      30.27F
BINGHAMTON     SUNNY     69  59  70 S6        30.31S
MONTICELLO     SUNNY     70  61  73 CALM      30.34S
$$

NYZ026>034-041>043-087-241500-
NORTH


CITY           SKY/WX    TMP DP  RH WIND       PRES   REMARKS
WATERTOWN      SUNNY     76  57  51 SW7       30.22S
FORT DRUM      NOT AVBL
MASSENA        SUNNY     75  61  61 SW12      30.21S
SARANAC LAKE   SUNNY     71  56  58 SW10      30.27S
PLATTSBURGH    SUNNY     73  63  70 SE8       30.20F
$$

NYZ001>004-010>016-019>021-085-241500-
WEST


CITY           SKY/WX    TMP DP  RH WIND       PRES   REMARKS
NIAGARA FALLS  PTSUNNY   78  62  57 SW10      30.20F
BUFFALO        PTSUNNY   76  59  55 S7        30.21F
DUNKIRK        SUNNY     76  61  59 S12       30.20F
JAMESTOWN      SUNNY     66  57  72 S7        30.26F
WELLSVILLE     CLOUDY    74  60  61 S10       30.31F
ROCHESTER      MOSUNNY   74  60  61 SW8       30.22F
PENN YAN       SUNNY     73  59  61 S8        30.27S
$$

             KEY
       WCI = WIND CHILL INDEX
       VSB = VISIBILITY
       HX  = HEAT INDEX
$$




USA.gov is the U.S. government's official web portal to all federal, state and local government web resources and services.